Waarnemingen

Advertentie
Mijn weer
Spa/La Sauveniere, België (6490): temperatuur & dauwpunt: 19.04.2018 12:00:00 - 25.04.2018 12:00:00 (CEST)Spa/La Sauveniere, België (6490): windsnelheid & windstoten: 19.04.2018 12:00:00 - 25.04.2018 12:00:00 (CEST)Spa/La Sauveniere, België (6490): windrichting: 19.04.2018 12:00:00 - 25.04.2018 12:00:00 (CEST)Spa/La Sauveniere, België (6490): luchtdruk: 19.04.2018 12:00:00 - 25.04.2018 12:00:00 (CEST)Spa/La Sauveniere, België (6490): zicht: 19.04.2018 12:00:00 - 25.04.2018 12:00:00 (CEST)
Datum & Tijd tt [°C] td [°C] ff [km/u] ff [kn] fx [km/u] fx [kn] dd ppp [hPa] vv [km]
25.04.2018 12:00:00 10,6 7,2 18 10 29 16 W 1012,9 35
25.04.2018 11:00:00 8,3 7,4 14 8 - - W 1013,3 5
25.04.2018 10:00:00 9,4 8,4 14 8 36 19 WNW 1012,0 8
25.04.2018 09:00:00 9,9 8,2 18 10 43 23 W 1011,5 10
25.04.2018 08:00:00 10,2 7,1 18 10 - - W 1011,2 29
25.04.2018 07:00:00 10,1 7,5 18 10 36 19 WZW 1010,9 14
25.04.2018 06:00:00 10,8 7,4 18 10 36 19 WZW 1010,6 20
25.04.2018 05:00:00 11,2 6,9 18 10 - - WZW 1010,5 24
25.04.2018 04:00:00 12,3 7,1 18 10 32 18 WZW 1010,4 27
25.04.2018 03:00:00 10,9 5,9 11 6 29 16 ZZW 1011,0 35
25.04.2018 02:00:00 11,0 5,9 18 10 - - Z 1011,6 40
25.04.2018 01:00:00 11,2 5,5 14 8 22 12 Z 1012,4 35
25.04.2018 00:00:00 11,8 5,9 14 8 22 12 ZZW 1013,2 40
24.04.2018 23:00:00 12,4 6,5 14 8 - - ZZW 1013,6 35
24.04.2018 22:00:00 12,7 5,7 11 6 22 12 ZZW 1014,0 40
24.04.2018 21:00:00 13,4 5,9 11 6 22 12 ZW 1014,0 35
24.04.2018 20:00:00 14,8 6,9 11 6 - - WZW 1014,2 40
24.04.2018 19:00:00 15,4 7,0 14 8 32 18 WZW 1014,3 30
24.04.2018 18:00:00 15,6 6,5 18 10 32 18 W 1014,9 35
24.04.2018 17:00:00 16,0 6,8 14 8 - - WZW 1015,3 30
24.04.2018 16:00:00 16,3 6,6 14 8 32 18 WZW 1015,7 30
24.04.2018 15:00:00 15,0 6,3 14 8 32 18 WZW 1016,8 30
24.04.2018 14:00:00 13,6 6,5 14 8 - - W 1017,5 35
24.04.2018 13:00:00 12,7 6,0 18 10 29 16 ZW 1017,9 30
24.04.2018 12:00:00 10,0 5,5 11 6 22 12 W 1019,2 30
24.04.2018 11:00:00 9,9 4,7 14 8 - - WZW 1019,0 40
24.04.2018 10:00:00 9,1 3,8 14 8 29 16 ZW 1018,7 40
24.04.2018 09:00:00 7,7 3,4 18 10 29 16 ZW 1018,9 35
24.04.2018 08:00:00 6,7 3,2 14 8 - - WZW 1019,1 35
24.04.2018 07:00:00 6,1 3,0 14 8 32 18 ZW 1018,6 35
24.04.2018 06:00:00 6,0 3,8 18 10 29 16 WZW 1018,7 30
24.04.2018 05:00:00 5,7 2,7 14 8 - - ZZW 1018,9 25
24.04.2018 04:00:00 5,9 2,1 11 6 22 12 ZZW 1019,2 26
24.04.2018 03:00:00 6,6 2,4 7 4 22 12 ZW 1019,4 26
24.04.2018 02:00:00 8,0 3,8 11 6 - - W 1019,6 35
24.04.2018 01:00:00 8,3 3,0 7 4 18 10 WZW 1019,3 35
24.04.2018 00:00:00 8,9 2,6 7 4 11 6 ZW 1018,9 40
23.04.2018 23:00:00 9,6 2,7 7 4 - - ZW 1018,9 45
23.04.2018 22:00:00 10,7 3,0 7 4 14 8 WZW 1018,4 45
23.04.2018 21:00:00 12,0 3,5 7 4 25 14 W 1017,6 40
23.04.2018 20:00:00 13,8 4,6 11 6 - - W 1017,1 35
23.04.2018 19:00:00 14,7 4,5 18 10 32 18 W 1016,9 35
23.04.2018 18:00:00 15,4 3,8 14 8 32 18 W 1016,5 30
23.04.2018 17:00:00 15,5 5,3 18 10 - - W 1016,4 30
23.04.2018 16:00:00 15,6 6,0 18 10 32 18 W 1016,3 35
23.04.2018 15:00:00 15,1 6,2 14 8 25 14 W 1016,8 35
23.04.2018 14:00:00 14,3 5,2 18 10 - - W 1017,1 30
23.04.2018 13:00:00 14,1 6,8 - - - - - 1017,0 24
23.04.2018 12:00:00 13,7 - - - 25 14 - - 17
23.04.2018 11:00:00 12,0 8,6 14 8 - - WNW 1016,6 15
23.04.2018 10:00:00 11,5 8,0 14 8 22 12 W 1016,2 16
23.04.2018 09:00:00 11,0 7,7 11 6 18 10 W 1016,1 24
23.04.2018 08:00:00 11,7 8,0 7 4 - - ZW 1015,2 23
23.04.2018 07:00:00 11,2 7,5 11 6 18 10 ZW 1014,8 29
23.04.2018 06:00:00 11,5 8,3 7 4 18 10 ZW 1014,6 17
23.04.2018 05:00:00 12,0 8,6 11 6 - - W 1015,0 8
23.04.2018 04:00:00 13,4 9,5 11 6 22 12 WZW 1014,3 21
23.04.2018 03:00:00 13,8 9,2 11 6 18 10 ZW 1013,6 17
23.04.2018 02:00:00 13,0 8,3 7 4 - - Z 1013,6 12
23.04.2018 01:00:00 13,8 10,4 22 12 47 25 WZW 1014,6 5
23.04.2018 00:00:00 17,8 8,4 14 8 29 16 ZZW 1012,5 26
22.04.2018 23:00:00 18,5 8,2 14 8 - - ZW 1012,2 29
22.04.2018 22:00:00 18,2 6,6 11 6 18 10 ZZW 1012,1 35
22.04.2018 21:00:00 19,7 6,8 11 6 25 14 ZW 1011,4 30
22.04.2018 20:00:00 21,4 7,4 11 6 - - WZW 1010,7 26
22.04.2018 19:00:00 22,0 8,3 22 12 47 25 WZW 1010,4 24
22.04.2018 18:00:00 23,1 7,4 25 14 47 25 WZW 1010,0 23
22.04.2018 17:00:00 24,3 6,7 25 14 - - WZW 1009,8 23
22.04.2018 16:00:00 23,9 7,8 22 12 43 23 ZW 1010,0 29
22.04.2018 15:00:00 24,0 8,6 18 10 32 18 ZW 1010,3 30
22.04.2018 14:00:00 21,0 8,0 7 4 - - WNW 1011,6 19
22.04.2018 13:00:00 23,8 7,7 18 10 29 16 ZZW 1011,3 30
22.04.2018 12:00:00 23,0 9,8 14 8 29 16 ZZW 1012,2 28
22.04.2018 11:00:00 21,3 10,0 14 8 - - Z 1012,9 30
22.04.2018 10:00:00 19,2 10,1 18 10 29 16 Z 1013,4 20
22.04.2018 09:00:00 16,5 9,0 18 10 29 16 ZZO 1014,1 21
22.04.2018 08:00:00 15,8 8,7 22 12 - - ZZO 1013,9 15
22.04.2018 07:00:00 14,5 7,6 18 10 25 14 ZZO 1014,7 19
22.04.2018 06:00:00 14,8 7,5 18 10 29 16 ZZO 1014,7 19
22.04.2018 05:00:00 15,2 7,8 22 12 - - ZZO 1015,2 18
22.04.2018 04:00:00 14,6 7,6 22 12 25 14 ZZO 1015,7 15
22.04.2018 03:00:00 14,7 7,6 14 8 25 14 ZZO 1016,0 13
22.04.2018 02:00:00 15,2 7,7 18 10 - - ZO 1016,7 12
22.04.2018 01:00:00 15,9 7,9 22 12 29 16 ZO 1017,1 11
22.04.2018 00:00:00 15,5 7,1 4 2 7 4 ZO 1017,7 10
21.04.2018 23:00:00 14,9 6,7 4 2 - - - 1018,3 10
21.04.2018 22:00:00 16,1 7,4 7 4 14 8 NO 1018,3 12
21.04.2018 21:00:00 17,1 8,0 7 4 11 6 O 1018,2 12
21.04.2018 20:00:00 18,1 8,9 7 4 - - NNO 1018,1 11
21.04.2018 19:00:00 19,9 9,6 11 6 22 12 NNO 1018,0 11
21.04.2018 18:00:00 20,7 9,7 11 6 25 14 N 1018,3 -
21.04.2018 17:00:00 20,8 10,9 14 8 - - N 1018,8 -
21.04.2018 16:00:00 20,9 10,6 14 8 25 14 N 1019,2 -
21.04.2018 15:00:00 21,0 10,7 11 6 22 12 N 1019,7 -
21.04.2018 14:00:00 20,6 10,0 11 6 - - N 1020,3 -
21.04.2018 13:00:00 20,0 9,8 11 6 14 8 N 1021,0 -
21.04.2018 12:00:00 18,5 9,9 7 4 14 8 NNW 1021,7 -
21.04.2018 11:00:00 17,6 9,8 7 4 - - NNW 1022,0 -
21.04.2018 10:00:00 16,7 8,9 7 4 11 6 NNO 1021,9 9
21.04.2018 09:00:00 14,9 9,3 0 0 4 2 N 1022,1 9
21.04.2018 08:00:00 12,7 7,1 4 2 - - OZO 1022,4 11
21.04.2018 07:00:00 10,9 5,5 4 2 4 2 ZZW 1022,4 12
21.04.2018 06:00:00 11,6 5,9 4 2 4 2 ZZW 1022,0 12
21.04.2018 05:00:00 12,3 6,3 4 2 - - Z 1022,2 14
21.04.2018 04:00:00 13,2 6,2 4 2 7 4 ZO 1022,3 16
21.04.2018 03:00:00 14,5 6,8 4 2 7 4 OZO 1022,3 15
21.04.2018 02:00:00 14,1 6,0 4 2 - - ZO 1022,8 18
21.04.2018 01:00:00 15,3 6,5 4 2 7 4 - 1022,8 19
21.04.2018 00:00:00 16,2 6,7 4 2 11 6 NNO 1022,7 18
20.04.2018 23:00:00 17,2 7,1 4 2 - - NNO 1022,5 19
20.04.2018 22:00:00 18,8 6,9 0 0 4 2 N 1022,0 35
20.04.2018 21:00:00 20,1 6,8 0 0 11 6 N 1021,6 29
20.04.2018 20:00:00 21,2 7,8 7 4 - - N 1021,1 30
20.04.2018 19:00:00 23,2 7,9 7 4 18 10 NNO 1020,9 25
20.04.2018 18:00:00 24,3 7,8 11 6 22 12 N 1021,0 27
20.04.2018 17:00:00 24,5 8,0 7 4 - - WNW 1021,2 27
20.04.2018 16:00:00 24,2 5,9 11 6 22 12 W 1021,9 27
20.04.2018 15:00:00 24,4 6,9 14 8 25 14 W 1022,3 29
20.04.2018 14:00:00 23,6 7,2 7 4 - - NW 1022,7 27
20.04.2018 13:00:00 23,6 7,1 4 2 14 8 N 1023,1 24
20.04.2018 12:00:00 23,1 8,0 0 0 14 8 N 1023,3 30
20.04.2018 11:00:00 22,4 8,4 7 4 - - - 1023,4 30
20.04.2018 10:00:00 21,0 8,8 4 2 11 6 WZW 1023,5 35
20.04.2018 09:00:00 19,3 9,6 4 2 14 8 ZZO 1023,7 35
20.04.2018 08:00:00 14,4 6,3 11 6 - - ZZO 1024,7 30
20.04.2018 07:00:00 13,7 4,8 7 4 11 6 Z 1024,7 45
20.04.2018 06:00:00 14,2 5,0 11 6 14 8 Z 1024,6 40
20.04.2018 05:00:00 15,2 5,0 11 6 - - Z 1024,7 35
20.04.2018 04:00:00 14,9 4,9 14 8 18 10 Z 1025,0 30
20.04.2018 03:00:00 15,3 5,1 14 8 22 12 ZZO 1025,2 30
20.04.2018 02:00:00 15,4 4,6 14 8 - - ZZO 1025,5 40
20.04.2018 01:00:00 16,1 4,2 14 8 18 10 ZZO 1025,4 35
20.04.2018 00:00:00 15,9 3,7 11 6 14 8 ZZO 1025,7 40
19.04.2018 23:00:00 16,9 3,5 11 6 - - ZZO 1025,7 30
19.04.2018 22:00:00 16,9 2,5 11 6 14 8 ZZO 1025,8 35
19.04.2018 21:00:00 18,8 2,4 7 4 11 6 Z 1025,1 35
19.04.2018 20:00:00 23,9 3,6 7 4 - - Z 1023,8 40
19.04.2018 19:00:00 25,3 3,0 14 8 29 16 Z 1023,5 30
19.04.2018 18:00:00 25,7 4,1 14 8 32 18 ZZO 1023,5 30
19.04.2018 17:00:00 25,8 3,4 18 10 - - ZZO 1023,8 30
19.04.2018 16:00:00 25,8 3,0 18 10 36 19 ZO 1024,1 30
19.04.2018 15:00:00 25,2 2,7 22 12 40 21 ZZO 1024,6 35
19.04.2018 14:00:00 24,4 2,7 22 12 - - ZZO 1025,1 40
19.04.2018 13:00:00 23,7 2,5 18 10 43 23 ZO 1025,6 35
19.04.2018 12:00:00 22,5 2,1 22 12 47 25 ZO 1026,2 35

tt = temperatuur
td = dauwpunt
ff = windsnelheid
fx = windstoten
dd = windrichting
ppp = luchtdruk
vv = zicht

Weerstations in de omgeving